Telluride, CO

5:38 PM MDT on September 20, 2019 (GMT -0600)
Telluride Regional

Weather History for KTEX - August, 2019

Change the Weather History Date:

Sunday, August 25, 2019

  Actual Average Record
Temperature  
Mean Temperature 64 °F -  
Max Temperature 78 °F 67 °F 78 °F (2007)
Min Temperature 50 °F 46 °F 39 °F (2016)
Degree Days  
Heating Degree Days 1    
Growing Degree Days 14 (Base 50)    
Moisture  
Dew Point 30 °F    
Average Humidity 30    
Maximum Humidity 47    
Minimum Humidity 14    
Precipitation  
Precipitation 0.00 in - - ()
Sea Level Pressure  
Sea Level Pressure 30.42 in    
Wind  
Wind Speed 5 mph ()    
Max Wind Speed 14 mph    
Max Gust Speed 24 mph    
Visibility 10.0 miles    
Events      
Averages and records for this station are not official NWS values.
T = Trace of Precipitation, MM = Missing Value Source: Averaged Metar Reports

Daily Weather History Graph

Daily Weather History Graph

Search for Another Location

Airport or City:

Astronomy

Aug. 25, 2019 Rise Set
Actual Time 6:35 AM MDT 7:51 PM MDT
Civil Twilight 6:08 AM MDT 8:18 PM MDT
Nautical Twilight 5:35 AM MDT 8:51 PM MDT
Astronomical Twilight 5:01 AM MDT 9:25 PM MDT
Moon 1:15 AM MDT (8/25) 4:12 PM MDT (8/25)
Length of Visible Light 14h 10m
Length of Day
13h 16m
Waning Crescent, 28% of the Moon is Illuminated
Aug 25
Waning Crescent
Aug 30
New
Sep 5
First Quarter
Sep 13
Full
Sep 21
Last Quarter

Hourly Weather History & Observations

Time (MDT) Temp. Dew Point Humidity Pressure Visibility Wind Dir Wind Speed Gust Speed Precip Events Conditions
12:15 AM 55.4 °F 30.2 °F 38% 30.44 in 10.0 mi SE 6.9 mph - N/A   Clear
12:35 AM 55.4 °F 30.2 °F 38% 30.43 in 10.0 mi ESE 5.8 mph - N/A   Clear
12:55 AM 55.4 °F 30.2 °F 38% 30.43 in 10.0 mi Calm Calm - N/A   Clear
1:15 AM 55.4 °F 30.2 °F 38% 30.43 in 10.0 mi SSE 4.6 mph - N/A   Clear
1:35 AM 55.4 °F 30.2 °F 38% 30.42 in 10.0 mi SSE 6.9 mph - N/A   Clear
1:55 AM 53.6 °F 30.2 °F 41% 30.42 in 10.0 mi SE 4.6 mph - N/A   Clear
2:15 AM 53.6 °F 30.2 °F 41% 30.41 in 10.0 mi SE 5.8 mph - N/A   Clear
2:35 AM 53.6 °F 30.2 °F 41% 30.42 in 10.0 mi SE 6.9 mph - N/A   Clear
2:55 AM 53.6 °F 30.2 °F 41% 30.42 in 10.0 mi SE 5.8 mph - N/A   Clear
3:15 AM 53.6 °F 30.2 °F 41% 30.42 in 10.0 mi SE 5.8 mph - N/A   Clear
3:35 AM 53.6 °F 30.2 °F 41% 30.43 in 10.0 mi SE 5.8 mph - N/A   Clear
3:55 AM 51.8 °F 30.2 °F 44% 30.43 in 10.0 mi SE 6.9 mph - N/A   Clear
4:15 AM 51.8 °F 30.2 °F 44% 30.43 in 10.0 mi SE 5.8 mph - N/A   Clear
4:35 AM 51.8 °F 30.2 °F 44% 30.43 in 10.0 mi SE 5.8 mph - N/A   Clear
4:55 AM 51.8 °F 30.2 °F 44% 30.43 in 10.0 mi ESE 4.6 mph - N/A   Clear
5:15 AM 51.8 °F 30.2 °F 44% 30.43 in 10.0 mi SSE 5.8 mph - N/A   Clear
5:35 AM 51.8 °F 30.2 °F 44% 30.43 in 10.0 mi SSE 5.8 mph - N/A   Clear
5:55 AM 50.0 °F 30.2 °F 47% 30.43 in 10.0 mi SSE 6.9 mph - N/A   Clear
6:15 AM 50.0 °F 30.2 °F 47% 30.43 in 10.0 mi SE 6.9 mph - N/A   Clear
6:35 AM 50.0 °F 30.2 °F 47% 30.43 in 10.0 mi SE 8.1 mph - N/A   Clear
6:55 AM 51.8 °F 30.2 °F 44% 30.44 in 10.0 mi ESE 5.8 mph - N/A   Clear
7:15 AM 51.8 °F 30.2 °F 44% 30.44 in 10.0 mi ESE 5.8 mph - N/A   Clear
7:35 AM 53.6 °F 32.0 °F 44% 30.45 in 10.0 mi SE 4.6 mph - N/A   Clear
7:55 AM 55.4 °F 30.2 °F 38% 30.45 in 10.0 mi SE 4.6 mph - N/A   Clear
8:15 AM 57.2 °F 32.0 °F 38% 30.45 in 10.0 mi ESE 4.6 mph - N/A   Clear
8:35 AM 59.0 °F 32.0 °F 36% 30.46 in 10.0 mi Calm Calm - N/A   Clear
8:55 AM 62.6 °F 32.0 °F 32% 30.46 in 10.0 mi Calm Calm - N/A   Clear
9:15 AM 62.6 °F 32.0 °F 32% 30.46 in 10.0 mi Calm Calm - N/A   Clear
9:35 AM 64.4 °F 35.6 °F 34% 30.46 in 10.0 mi Calm Calm - N/A   Clear
9:55 AM 68.0 °F 35.6 °F 30% 30.46 in 10.0 mi Calm Calm - N/A   Clear
10:15 AM 71.6 °F 32.0 °F 23% 30.46 in 10.0 mi West 4.6 mph - N/A   Clear
10:35 AM 71.6 °F 32.0 °F 23% 30.46 in 10.0 mi WNW 5.8 mph - N/A   Clear
10:55 AM 71.6 °F 32.0 °F 23% 30.45 in 10.0 mi West 8.1 mph - N/A   Clear
11:15 AM 73.4 °F 32.0 °F 22% 30.45 in 10.0 mi WNW 8.1 mph 17.3 mph N/A   Clear
11:35 AM 73.4 °F 32.0 °F 22% 30.45 in 10.0 mi WNW 5.8 mph 16.1 mph N/A   Clear
11:55 AM 73.4 °F 32.0 °F 22% 30.45 in 10.0 mi North 4.6 mph - N/A   Clear
12:15 PM 73.4 °F 32.0 °F 22% 30.44 in 10.0 mi NNW 3.5 mph - N/A   Clear
12:35 PM 77.0 °F 30.2 °F 18% 30.44 in 10.0 mi West 5.8 mph 24.2 mph N/A   Clear
1:15 PM 77.0 °F 30.2 °F 18% 30.43 in 10.0 mi North 4.6 mph - N/A   Clear
1:35 PM 77.0 °F 30.2 °F 18% 30.43 in 10.0 mi WNW 9.2 mph 16.1 mph N/A   Clear
1:55 PM 77.0 °F 30.2 °F 18% 30.42 in 10.0 mi West 6.9 mph 21.9 mph N/A   Clear
2:15 PM 77.0 °F 28.4 °F 17% 30.42 in 10.0 mi WSW 9.2 mph 19.6 mph N/A   Clear
2:35 PM 77.0 °F 30.2 °F 18% 30.42 in 10.0 mi West 8.1 mph 21.9 mph N/A   Clear
2:50 PM 77.0 °F 30.2 °F 18% 30.40 in 10.0 mi WNW 6.9 mph - N/A   Clear
3:15 PM 78.8 °F 28.4 °F 16% 30.40 in 10.0 mi West 8.1 mph 19.6 mph N/A   Clear
3:50 PM 78.8 °F 26.6 °F 15% 30.40 in 10.0 mi West 13.8 mph 21.9 mph N/A   Clear
4:15 PM 78.8 °F 30.2 °F 17% 30.38 in 10.0 mi North 4.6 mph - N/A   Clear
4:35 PM 78.8 °F 28.4 °F 16% 30.38 in 10.0 mi WNW 5.8 mph 17.3 mph N/A   Clear
4:55 PM 78.8 °F 26.6 °F 15% 30.38 in 10.0 mi WNW 10.4 mph 17.3 mph N/A   Clear
5:15 PM 78.8 °F 26.6 °F 15% 30.37 in 10.0 mi NNW 6.9 mph - N/A   Clear
5:35 PM 77.0 °F 26.6 °F 16% 30.38 in 10.0 mi NW 6.9 mph - N/A   Clear
5:55 PM 77.0 °F 26.6 °F 16% 30.37 in 10.0 mi WNW 4.6 mph - N/A   Clear
6:15 PM 77.0 °F 24.8 °F 14% 30.37 in 10.0 mi West 8.1 mph - N/A   Clear
6:35 PM 77.0 °F 26.6 °F 16% 30.37 in 10.0 mi WNW 9.2 mph 18.4 mph N/A   Clear
6:55 PM 75.2 °F 26.6 °F 17% 30.36 in 10.0 mi WNW 9.2 mph - N/A   Clear
7:15 PM 73.4 °F 26.6 °F 18% 30.36 in 10.0 mi WNW 8.1 mph 16.1 mph N/A   Clear
7:35 PM 73.4 °F 28.4 °F 19% 30.36 in 10.0 mi WNW 5.8 mph 16.1 mph N/A   Clear
7:55 PM 71.6 °F 28.4 °F 20% 30.36 in 10.0 mi WNW 4.6 mph - N/A   Clear
8:15 PM 71.6 °F 28.4 °F 20% 30.37 in 10.0 mi Calm Calm - N/A   Clear
8:55 PM 69.8 °F 30.2 °F 23% 30.38 in 10.0 mi Calm Calm - N/A   Clear
9:15 PM 68.0 °F 30.2 °F 24% 30.39 in 10.0 mi South 3.5 mph - N/A   Clear
9:35 PM 66.2 °F 32.0 °F 28% 30.40 in 10.0 mi Calm Calm - N/A   Clear
9:55 PM 64.4 °F 32.0 °F 30% 30.40 in 10.0 mi Calm Calm - N/A   Clear
10:15 PM 62.6 °F 32.0 °F 32% 30.40 in 10.0 mi SSE 5.8 mph - N/A   Clear
10:35 PM 62.6 °F 32.0 °F 32% 30.40 in 10.0 mi SE 6.9 mph - N/A   Clear
10:55 PM 60.8 °F 32.0 °F 34% 30.40 in 10.0 mi SE 5.8 mph - N/A   Clear
11:15 PM 60.8 °F 32.0 °F 34% 30.40 in 10.0 mi SE 8.1 mph - N/A   Clear
11:35 PM 60.8 °F 32.0 °F 34% 30.40 in 10.0 mi ESE 5.8 mph - N/A   Clear
11:55 PM 59.0 °F 32.0 °F 36% 30.39 in 10.0 mi SE 6.9 mph - N/A   Clear